CW8721 Weather Reports


Display with metric or nautical units.
time (UTC)temp
F
wind
direction
speed
MPH
gust
MPH
rain 1hr
in
rain 24hr
in
rain mn
in
humidity
%
barometer
mb
20260504230504 70 137 4.0 12.0 0.00 0.00 0.00 32 999.1
20260504230005 70 70 4.0 12.0 0.00 0.00 0.00 33 999.2
20260504225507 70 144 3.0 12.0 0.00 0.00 0.00 33 999.1
20260504225004 70 88 2.0 11.0 0.00 0.00 0.00 33 999.1
20260504224503 70 120 4.0 13.0 0.00 0.00 0.00 31 999.1
20260504224003 72 169 6.0 13.0 0.00 0.00 0.00 29 999.1
20260504223503 71 101 0.0 2.0 0.00 0.00 0.00 28 999.0
20260504223003 71 153 0.0 1.0 0.00 0.00 0.00 27 999.0
20260504222505 71 196 0.0 2.0 0.00 0.00 0.00 26 999.0
20260504222003 72 214 0.0 2.0 0.00 0.00 0.00 26 999.0
20260504221504 71 215 1.0 10.0 0.00 0.00 0.00 27 998.9
20260504221002 71 212 2.0 10.0 0.00 0.00 0.00 28 999.0
20260504220502 71 250 4.0 11.0 0.00 0.00 0.00 27 998.9
20260504220002 71 228 4.0 11.0 0.00 0.00 0.00 26 998.9
20260504215503 72 210 1.0 4.0 0.00 0.00 0.00 26 999.1
20260504215001 71 206 2.0 15.0 0.00 0.00 0.00 26 999.1
20260504214501 71 198 6.0 15.0 0.00 0.00 0.00 27 999.0
20260504214003 72 252 3.0 11.0 0.00 0.00 0.00 26 999.0
20260504213601 72 238 3.0 12.0 0.00 0.00 0.00 26 999.1
20260504213105 72 277 6.0 13.0 0.00 0.00 0.00 28 999.0
20260504212559 72 269 7.0 13.0 0.00 0.00 0.00 28 999.1
20260504212100 72 264 6.0 10.0 0.00 0.00 0.00 29 999.1
20260504211604 73 313 5.0 15.0 0.00 0.00 0.00 27 999.2
20260504211058 73 267 5.0 12.0 0.00 0.00 0.00 28 999.3
20260504210557 73 325 4.0 12.0 0.00 0.00 0.00 28 999.4
20260504210104 73 302 2.0 5.0 0.00 0.00 0.00 29 999.5
20260504205558 72 48 1.0 4.0 0.00 0.00 0.00 28 999.5
20260504205058 73 238 0.0 11.0 0.00 0.00 0.00 27 999.7
20260504204636 73 244 2.0 11.0 0.00 0.00 0.00 28 999.7
20260504204055 73 257 2.0 6.0 0.00 0.00 0.00 28 999.6
20260504203555 73 51 1.0 9.0 0.00 0.00 0.00 27 999.7
20260504203055 73 299 4.0 11.0 0.00 0.00 0.00 28 999.7
20260504202555 73 325 6.0 12.0 0.00 0.00 0.00 26 999.8
20260504202055 73 292 9.0 13.0 0.00 0.00 0.00 27 999.8
20260504201554 73 304 8.0 13.0 0.00 0.00 0.00 27 999.7
20260504201054 72 311 6.0 13.0 0.00 0.00 0.00 28 999.7
20260504200555 73 323 7.0 15.0 0.00 0.00 0.00 27 999.8
20260504200056 73 325 7.0 13.0 0.00 0.00 0.00 27 999.9
20260504195552 74 327 6.0 12.0 0.00 0.00 0.00 27 999.8
20260504195056 74 14 5.0 14.0 0.00 0.00 0.00 28 999.8
20260504194555 75 328 6.0 14.0 0.00 0.00 0.00 27 999.9
20260504194051 75 336 7.0 12.0 0.00 0.00 0.00 27 1000.0
20260504193552 74 308 7.0 12.0 0.00 0.00 0.00 28 1000.1
20260504193050 74 311 7.0 13.0 0.00 0.00 0.00 29 1000.1
20260504192550 74 338 6.0 14.0 0.00 0.00 0.00 29 1000.2
20260504192048 73 309 10.0 14.0 0.00 0.00 0.00 29 1000.3
20260504191547 71 313 8.0 14.0 0.00 0.00 0.00 30 1000.3
20260504191046 72 308 8.0 16.0 0.00 0.00 0.00 30 1000.2
20260504190546 72 330 11.0 16.0 0.00 0.00 0.00 29 1000.4
20260504190055 72 245 2.0 8.0 0.00 0.00 0.00 30 1000.3
20260504185544 71 294 0.0 8.0 0.00 0.00 0.00 31 1000.4
20260504185044 71 298 1.0 7.0 0.00 0.00 0.00 31 1000.5
20260504184559 71 293 3.0 6.0 0.00 0.00 0.00 30 1000.5
20260504184043 71 196 0.0 3.0 0.00 0.00 0.00 33 1000.6
20260504183543 71 196 0.0 9.0 0.00 0.00 0.00 28 1000.6
20260504183053 71 266 2.0 9.0 0.00 0.00 0.00 29 1000.6
20260504182546 72 263 2.0 6.0 0.00 0.00 0.00 28 1000.6
20260504182042 72 90 0.0 8.0 0.00 0.00 0.00 28 1000.7
20260504181541 73 44 2.0 8.0 0.00 0.00 0.00 29 1000.9
20260504181040 73 129 0.0 4.0 0.00 0.00 0.00 28 1000.8
20260504180538 73 132 1.0 7.0 0.00 0.00 0.00 28 1001.0
20260504180040 74 140 1.0 7.0 0.00 0.00 0.00 27 1001.1
20260504175536 73 174 0.0 5.0 0.00 0.00 0.00 29 1001.1
20260504175037 72 159 0.0 5.0 0.00 0.00 0.00 29 1001.0
20260504174534 72 148 0.0 3.0 0.00 0.00 0.00 29 1001.1
20260504174033 71 155 1.0 3.0 0.00 0.00 0.00 29 1001.1
20260504173533 71 150 0.0 4.0 0.00 0.00 0.00 30 1001.3
20260504173031 71 127 1.0 5.0 0.00 0.00 0.00 29 1001.2
20260504172529 70 192 1.0 7.0 0.00 0.00 0.00 30 1001.4
20260504172029 70 122 1.0 5.0 0.00 0.00 0.00 30 1001.3
20260504171539 70 155 1.0 9.0 0.00 0.00 0.00 30 1001.2
20260504171029 71 163 1.0 9.0 0.00 0.00 0.00 29 1001.4
20260504170528 70 157 1.0 7.0 0.00 0.00 0.00 31 1001.4
20260504151058 65 167 3.0 9.0 0.00 0.00 0.00 37 1001.8
20260504150600 65 134 2.0 9.0 0.00 0.00 0.00 37 1001.8
20260504141047 62 129 2.0 6.0 0.00 0.00 0.00 41 1002.2
20260504140544 62 171 1.0 5.0 0.00 0.00 0.00 42 1002.2
20260504130535 60 170 3.0 5.0 0.00 0.00 0.00 45 1002.3
20260504110524 59 292 1.0 4.0 0.00 0.00 0.00 40 1002.9
20260504100517 60 155 0.0 6.0 0.00 0.00 0.00 38 1002.4
20260504081521 60 184 1.0 4.0 0.00 0.00 0.00 31 1002.1
20260504081007 58 158 2.0 5.0 0.00 0.00 0.00 34 1002.2
20260504080507 54 153 1.0 3.0 0.00 0.00 0.00 41 1002.4
20260504070106 54 121 0.0 0.0 0.00 0.00 0.00 40 1002.0
20260504050545 63 121 0.0 0.0 0.00 0.00 0.00 28 1002.5
20260504045546 62 121 0.0 0.0 0.00 0.00 0.00 29 1002.6
20260504045045 62 121 0.0 0.0 0.00 0.00 0.00 31 1002.8
20260504044545 62 114 0.0 0.0 0.00 0.00 0.00 30 1002.9
20260504044045 64 129 0.0 0.0 0.00 0.00 0.00 28 1002.9
20260504043545 64 210 0.0 0.0 0.00 0.00 0.00 27 1002.7
20260504043047 64 210 0.0 0.0 0.00 0.00 0.00 27 1002.7
20260504042547 65 210 0.0 0.0 0.00 0.00 0.00 27 1002.7
20260504042048 65 210 0.0 2.0 0.00 0.00 0.00 27 1002.8
20260504041548 65 210 0.0 2.0 0.00 0.00 0.00 27 1002.8
20260504041045 65 210 1.0 2.0 0.00 0.00 0.00 26 1002.8
20260504040546 65 210 1.0 2.0 0.00 0.00 0.00 26 1002.9
20260504040043 65 210 0.0 2.0 0.00 0.00 0.00 26 1002.9
20260504035543 65 210 0.0 1.0 0.00 0.00 0.00 26 1002.9
20260504035046 65 210 0.0 0.0 0.00 0.00 0.00 26 1002.9
20260504034555 66 210 0.0 0.0 0.00 0.00 0.00 26 1002.9
20260504034043 66 216 0.0 0.0 0.00 0.00 0.00 26 1002.8
20260504033544 66 216 0.0 0.0 0.00 0.00 0.00 26 1002.9
20260504033043 66 216 0.0 1.0 0.00 0.00 0.00 26 1002.9
20260504032543 66 216 0.0 1.0 0.00 0.00 0.00 26 1002.9
20260504032045 66 216 0.0 1.0 0.00 0.00 0.00 26 1002.8
20260504031543 66 218 0.0 1.0 0.00 0.00 0.00 26 1002.8
20260504031044 66 218 0.0 1.0 0.00 0.00 0.00 26 1002.7
20260504030542 67 218 0.0 1.0 0.00 0.00 0.00 26 1002.8
20260504030043 67 218 0.0 1.0 0.00 0.00 0.00 26 1002.7
20260504025541 67 218 0.0 1.0 0.00 0.00 0.00 25 1002.7
20260504025042 68 218 0.0 2.0 0.00 0.00 0.00 24 1002.7
20260504024542 68 224 0.0 2.0 0.00 0.00 0.00 24 1002.7
20260504024041 69 238 0.0 2.0 0.00 0.00 0.00 24 1002.6
20260504023541 69 251 0.0 2.0 0.00 0.00 0.00 24 1002.6
20260504023041 69 251 0.0 2.0 0.00 0.00 0.00 23 1002.6
20260504022540 69 251 0.0 3.0 0.00 0.00 0.00 23 1002.5
20260504022042 68 251 0.0 3.0 0.00 0.00 0.00 24 1002.5
20260504021540 68 261 0.0 3.0 0.00 0.00 0.00 25 1002.5
20260504021042 68 261 1.0 6.0 0.00 0.00 0.00 25 1002.4
20260504020540 68 263 3.0 6.0 0.00 0.00 0.00 24 1002.5
20260504020040 69 271 2.0 6.0 0.00 0.00 0.00 24 1002.5
20260504015540 68 269 2.0 6.0 0.00 0.00 0.00 24 1002.4
20260504015041 69 266 2.0 4.0 0.00 0.00 0.00 24 1002.5
20260504014552 69 271 1.0 4.0 0.00 0.00 0.00 24 1002.5
20260504014040 70 273 3.0 7.0 0.00 0.00 0.00 23 1002.5
20260504013538 70 267 4.0 7.0 0.00 0.00 0.00 24 1002.5
20260504013038 70 283 3.0 7.0 0.00 0.00 0.00 23 1002.6
20260504012538 71 284 3.0 6.0 0.00 0.00 0.00 23 1002.6
20260504012038 71 281 3.0 8.0 0.00 0.00 0.00 23 1002.7
20260504011537 71 272 5.0 8.0 0.00 0.00 0.00 23 1002.7
20260504011035 71 309 3.0 8.0 0.00 0.00 0.00 23 1002.8
20260504010534 71 271 4.0 8.0 0.00 0.00 0.00 23 1003.0
20260504010037 71 284 3.0 8.0 0.00 0.00 0.00 22 1003.0
20260504005534 71 246 5.0 9.0 0.00 0.00 0.00 23 1003.1
20260504005034 72 255 4.0 9.0 0.00 0.00 0.00 22 1003.2
20260504004535 72 256 5.0 10.0 0.00 0.00 0.00 22 1003.2
20260504004032 72 294 5.0 10.0 0.00 0.00 0.00 22 1003.3
20260504003532 72 273 4.0 11.0 0.00 0.00 0.00 23 1003.4
20260504003036 72 270 7.0 11.0 0.00 0.00 0.00 23 1003.4
20260504002531 72 277 8.0 11.0 0.00 0.00 0.00 21 1003.4
20260504002132 73 242 4.0 11.0 0.00 0.00 0.00 22 1003.5
20260504001533 73 284 7.0 11.0 0.00 0.00 0.00 22 1003.5
20260504001031 73 314 4.0 8.0 0.00 0.00 0.00 20 1003.4
20260504000530 73 266 4.0 10.0 0.00 0.00 0.00 21 1003.4
20260504000030 73 261 6.0 10.0 0.00 0.00 0.00 21 1003.4
20260503235530 74 273 7.0 10.0 0.00 0.00 0.00 20 1003.4
20260503235030 74 299 6.0 10.0 0.00 0.00 0.00 19 1003.4
20260503234542 74 254 5.0 10.0 0.00 0.00 0.00 19 1003.4
20260503234030 74 310 2.0 9.0 0.00 0.00 0.00 19 1003.4
20260503233529 74 318 4.0 11.0 0.00 0.00 0.00 20 1003.5
20260503233031 74 284 7.0 11.0 0.00 0.00 0.00 20 1003.5
20260503232528 75 239 5.0 10.0 0.00 0.00 0.00 18 1003.5
20260503232028 75 296 6.0 12.0 0.00 0.00 0.00 16 1003.6
20260503231529 75 290 6.0 12.0 0.00 0.00 0.00 17 1003.6
20260503231031 75 267 7.0 12.0 0.00 0.00 0.00 17 1003.6